Regional Weather Roundup
Issued by NWS

Home | Current Version | Previous Version | Text Only | Print | Product List | Glossary On
Versions: 1 2 3 4 5 6 7 8 9 10 11 12 13 14 15 16 17 18 19 20 21 22 23 24 25 26 27 28 29 30 31 32 33 34 35 36 37 38 39 40 41 42 43 44 45 46 47 48 49 50
000
ASUS43 KDMX 251607
RWRIA

WEATHER ROUNDUP FOR IOWA
NATIONAL WEATHER SERVICE DES MOINES IA
1000 AM CST SUN JAN 25 2015

NOTE: "FAIR" INDICATES FEW OR NO CLOUDS BELOW 12,000 FEET WITH NO
SIGNIFICANT WEATHER AND/OR OBSTRUCTIONS TO VISIBILITY.

* - THESE STATIONS ARE NOT NWS STATIONS...THUS NOT UNDER NWS
QUALITY CONTROL.  THEY ALSO DO NOT REPORT WEATHER SUCH
AS PRECIPITATION OR FOG.

IAZ001>003-012>014-020>022-031>034-043>046-251700-
   NORTHWEST IOWA

CITY           SKY/WX    TMP DP  RH WIND       PRES   REMARKS
CARROLL *      CLOUDY    34  32  93 N21G28    29.87R WCI  22
CHEROKEE *     CLOUDY    34  32  93 N10       29.94R WCI  26
DENISON *      CLOUDY    34  34 100 N13G24    29.88R WCI  25
LE MARS *      CLOUDY    34  34 100 N13G18    29.96R WCI  25
ORANGE CITY *  CLOUDY    36  30  80 N8        29.95R WCI  29
SHELDON *      CLOUDY    32  32 100 N14G21    29.94R WCI  22
SIOUX CITY     CLOUDY    36  33  89 N16       29.96R WCI  26
SPENCER        CLOUDY    32  28  85 N14       29.94R WCI  22
STORM LAKE *   CLOUDY    32  30  93 N17G25    29.91R WCI  21
$$

IAZ055>058-069>071-079>083-090>094-251700-
   SOUTHWEST IOWA

CITY           SKY/WX    TMP DP  RH WIND       PRES   REMARKS
ATLANTIC *     CLOUDY    36  34  93 N23       29.84R WCI  24
AUDUBON *      MOSUNNY   34  30  86 N17G26    29.87R WCI  23
CLARINDA *     CLOUDY    36  34  93 N21G30    29.83R WCI  24
COUNCIL BLFS * CLOUDY    36  36 100 N18G24    29.87R WCI  25
CRESTON *      MIX PCPN  34  34 100 N17G25    29.78R WCI  23
HARLAN  *      MIX PCPN  34  34 100 N18G26    29.91R WCI  23
LAMONI         CLOUDY    35  33  92 N16G28    29.73R WCI  25
RED OAK *      CLOUDY    36  34  93 N22G32    29.85R WCI  24
SHENANDOAH *   CLOUDY    36  34  93 N21G32    29.86R WCI  24
$$

IAZ047>049-059>061-072>074-084-251700-
   CENTRAL IOWA

CITY           SKY/WX    TMP DP  RH WIND       PRES   REMARKS
AMES           LGT SNOW  34  31  88 NE13G24   29.84R FOG     WCI  25
ANKENY *       LGT SNOW  34  34 100 N14G23    29.82R WCI  24
CHARITON *     LGT SNOW  34  32  93 NE18G26   29.74R VSB 1   WCI  23
DES MOINES     LGT SNOW  34  31  88 NE15      29.81R VSB 3/4 WCI  24
GRINNELL*      LGT SNOW  32  30  93 NE18G26   29.79R WCI  20
KNOXVILLE *    SNOW      34  32  93 NE16G22   29.75R VSB 1/2 WCI  23
MARSHALLTOWN   LGT SNOW  31  28  89 NE24G31   29.82R FOG     WCI  17
PELLA *        HVY RAIN  32  32 100 NE15G24   29.79R WCI  22
PERRY *        LGT RAIN  36  34  93 N14       29.85R WCI  27
$$

IAZ004>006-015-016-023>025-035-036-251700-
   NORTH CENTRAL IOWA

CITY           SKY/WX    TMP DP  RH WIND       PRES   REMARKS
ALGONA *       CLOUDY    32  32 100 N16       29.92R WCI  21
CLARION *      CLOUDY    32  32 100 NE21      29.88R WCI  20
ESTHERVILLE    CLOUDY    28  26  92 NE16G23   29.93R WCI  16
FORT DODGE *   CLOUDY    32  28  86 N17G23    29.88R WCI  21
MASON CITY     CLOUDY    30  27  88 N16       29.91R WCI  19
FOREST CITY *  CLOUDY    30  28  93 N14       29.90R WCI  20
IOWA FALLS *   CLOUDY    32  30  93 NE18      29.87R WCI  20
$$

IAZ007>011-017>019-026>030-037>042-050>054-066-251700-
   NORTHEAST IOWA

CITY           SKY/WX    TMP DP  RH WIND       PRES   REMARKS
CEDAR RAPIDS   LGT SNOW  29  28  96 NE18      29.79R VSB 1   WCI  16
CHARLES CITY * CLOUDY    30  28  93 NE15      29.90R WCI  19
CLINTON *      CLOUDY    28  25  86 NE26      29.79R WCI  13
DECORAH *      CLOUDY    27  21  80 NE10      29.89R WCI  17
DUBUQUE        LGT SNOW  25  21  85 NE23G29   29.83R VSB 1   WCI  10
MONTICELLO *   FLURRIES  27  27 100 NE14G24   29.82R WCI  15
OELWEIN *      CLOUDY    27  23  86 NE17G26   29.86R WCI  14
WATERLOO       CLOUDY    29  25  85 NE16      29.87R WCI  17
$$

IAZ064-065-067-068-078-251700-
   EAST CENTRAL IOWA

CITY           SKY/WX    TMP DP  RH WIND       PRES   REMARKS
DAVENPORT      LGT SNOW  29  26  89 NE21      29.77R VSB 3/4 WCI  16
IOWA CITY      LGT SNOW  30  28  92 NE15G29   29.79R VSB 3/4 WCI  19
MT. PLEASANT * LGT SNOW  32  32 100 NE17G26   29.71R VSB 3/4 WCI  21
MUSCATINE *    LGT SNOW  32  30  93 NE23G35   29.75R VSB 1   WCI  19
$$

IAZ062-063-075>077-085>089-095>099-251700-
   SOUTHEAST IOWA

CITY           SKY/WX    TMP DP  RH WIND       PRES   REMARKS
BURLINGTON     LGT SNOW  33  33 100 NE16G24   29.68R VSB 3/4 WCI  23
FAIRFIELD *    LGT SNOW  32  32 100 NE16G28   29.72R VSB 3/4 WCI  21
FORT MADISON * SNOW      34  34 100 NE13G21   29.68R VSB 1/2 WCI  25
KEOKUK *       LGT RAIN  36  36 100 NE12G18   29.65R WCI  27
OSKALOOSA *    LGT SNOW  32  32 100 NE21      29.75R WCI  20
CENTERVILLE *  LGT RAIN  34  34 100 N17G23    29.70R WCI  23
OTTUMWA        LGT SNOW  33  32  96 NE21G31   29.73R VSB 1   WCI  21
WASHINGTON *   SNOW      32  32 100 NE23G32   29.73R VSB 1/2 WCI  19
$$

ABBREVIATIONS USED IN REMARKS
   TC - TEMPERATURES IN CELSIUS
  WCI - WIND CHILL INDEX
   HX - HEAT INDEX
  VSB - VISIBILITY
$$




USA.gov is the U.S. government's official web portal to all federal, state and local government web resources and services.